[[{"header":{"parameterUnit":"m.s-1","parameterCategory":1,"la1":30.2991,"la2":30.254,"lo1":-89.0895,"lo2":-89.0444,"dy":0.0017,"dx":0.0017,"nx":28,"ny":28,"refTime":"2024-03-16T09:00:00:Z","depth":0,"parameterNumber":2,"parameterNumberName":"U-component_of_WINDS"},"data":[0,0,0,0,0,0,0,0,0,0,0,0,0,0,0,0,0,0,0,0,0,0,0,0,0,0,0,0,0,0,0,0,0,0,0,0,0,0,0,0,0,0,0,0,0,0,0,0,0,0,0,0,0,0,0,0,0,0,-0.3094,-0.3095,0,-0.3175,-0.3176,-0.3177,-0.3191,-0.319,-0.3189,-0.3189,-0.327,-0.3272,-0.3275,0,0,0,0,0,0,0,0,0,0,0,0,0,-0.2951,-0.2954,-0.3094,-0.3095,-0.3096,-0.3175,-0.3176,-0.3177,-0.3191,-0.319,-0.3189,-0.3189,-0.3269,-0.3272,-0.3275,0,0,0,0,0,0,0,0,0,0,0,0,0,-0.302,-0.2954,-0.3094,-0.3113,-0.3115,-0.3175,-0.3176,-0.3177,-0.3191,-0.319,-0.3189,-0.3188,-0.3268,-0.3272,-0.3276,-0.3322,0,0,-0.3289,-0.329,0,0,0,0,0,0,0,0,-0.3017,-0.3026,-0.3109,-0.3112,-0.3114,-0.3172,-0.3155,-0.3226,-0.3191,-0.3162,-0.3189,-0.3188,-0.3238,-0.3244,-0.3262,-0.3326,-0.3329,-0.3289,-0.3292,-0.3293,-0.3295,0,0,0,0,0,0,0,-0.3012,-0.3022,-0.3126,-0.311,-0.3114,-0.3117,-0.3125,-0.3168,-0.3205,-0.3165,-0.3166,-0.3175,-0.3239,-0.3258,-0.3264,-0.333,-0.3289,-0.3293,-0.3295,-0.3297,-0.3436,-0.3437,0,0,0,0,0,0,-0.3004,-0.3018,-0.3124,-0.3129,-0.3062,-0.312,-0.313,-0.3154,-0.3204,-0.3211,-0.3176,-0.3176,-0.3251,-0.3259,-0.3267,-0.3324,-0.3293,-0.3297,-0.33,-0.3435,-0.3436,-0.3437,0,0,0,0,0,0,-0.3001,-0.3013,-0.312,-0.3074,-0.3088,-0.3124,-0.3151,-0.3157,-0.3175,-0.3213,-0.3219,-0.3189,-0.3251,-0.3261,-0.3308,-0.3327,-0.3299,-0.3303,-0.3433,-0.3435,-0.3437,-0.3439,0,0,0,0,0,0,-0.2996,-0.3012,-0.303,-0.3074,-0.309,-0.3161,-0.3152,-0.3159,-0.3182,-0.3183,-0.3226,-0.3232,-0.3251,-0.3302,-0.3312,-0.3332,-0.3306,-0.3432,-0.3434,-0.3436,-0.3437,-0.3441,-0.3443,0,0,0,0,0,-0.2991,-0.3027,-0.3031,-0.3044,-0.3114,-0.3162,-0.3171,-0.3192,-0.3184,-0.3202,-0.3227,-0.3231,-0.3323,-0.3307,-0.3318,-0.334,-0.3431,-0.3433,-0.3436,-0.3436,-0.344,-0.3443,0,0,0,0,0,0,-0.2984,-0.3033,-0.3038,-0.3089,-0.3122,-0.3164,-0.3189,-0.3195,-0.323,-0.3229,-0.3252,-0.3262,-0.3308,-0.3329,-0.3309,-0.3387,-0.3376,-0.3381,-0.3372,-0.3376,-0.3379,-0.3374,-0.331,0,0,0,0,0,-0.2988,-0.3024,-0.3065,-0.3106,-0.3122,-0.3152,-0.3174,-0.3187,-0.3221,-0.3235,-0.3263,-0.3295,-0.3331,-0.3355,-0.339,-0.344,-0.345,-0.3461,-0.3463,-0.3466,-0.347,-0.3498,-0.3504,-0.3446,-0.3446,-0.3446,0,0,-0.2998,-0.3029,-0.305,-0.3106,-0.3132,-0.3168,-0.3164,-0.3202,-0.3229,-0.3241,-0.3288,-0.3309,-0.3346,-0.3395,-0.3418,-0.3414,-0.3488,-0.3469,-0.3471,-0.3474,-0.3502,-0.3507,-0.3512,-0.3448,-0.3448,-0.3447,0,0,-0.3034,-0.3061,-0.3098,-0.3125,-0.3165,-0.3185,-0.3194,-0.3236,-0.3251,-0.3298,-0.3308,-0.3339,-0.3401,-0.3428,-0.345,-0.3495,-0.35,-0.3505,-0.3522,-0.3549,-0.3553,-0.3557,-0.3574,-0.358,-0.351,-0.351,-0.351,0,-0.304,-0.3096,-0.3117,-0.3155,-0.3179,-0.3191,-0.3229,-0.3254,-0.3303,-0.332,-0.3314,-0.3392,-0.3418,-0.3473,-0.3484,-0.3501,-0.3512,-0.3501,-0.3551,-0.3555,-0.3559,-0.3576,-0.3582,-0.351,-0.351,-0.351,-0.351,0,-0.3102,-0.314,-0.3165,-0.3214,-0.324,-0.3278,-0.3305,-0.3329,-0.3339,-0.336,-0.3407,-0.3439,-0.3481,-0.3495,-0.3505,-0.3552,-0.3548,-0.3546,-0.3536,-0.3565,-0.3581,-0.3587,-0.3511,-0.351,-0.351,-0.351,0,0,-0.3136,-0.3195,-0.3204,-0.3227,-0.3272,-0.3301,-0.3339,-0.3381,-0.3402,-0.3435,-0.3468,-0.352,-0.3518,-0.3543,-0.3556,-0.3579,-0.3614,-0.3575,-0.3576,-0.3582,-0.3667,-0.3669,-0.3676,-0.3617,-0.3618,-0.3619,-0.3664,0,-0.3178,-0.3247,-0.3267,-0.3325,-0.3361,-0.3373,-0.3406,-0.3437,-0.3457,-0.3489,-0.351,-0.3547,-0.3542,-0.3557,-0.3581,-0.3605,-0.3631,-0.3601,-0.3648,-0.3649,-0.3639,-0.3684,-0.3686,-0.3727,-0.3671,-0.3672,-0.3672,0,-0.3236,-0.3271,-0.3333,-0.3374,-0.339,-0.342,-0.3459,-0.349,-0.3525,-0.3538,-0.3565,-0.3576,-0.3616,-0.3602,-0.3657,-0.3636,-0.3656,-0.367,-0.3672,-0.3678,-0.3663,-0.3692,-0.3741,-0.3747,-0.3682,-0.3681,-0.3681,0,-0.3256,-0.3318,-0.3364,-0.3382,-0.3431,-0.3452,-0.3472,-0.3507,-0.353,-0.3565,-0.3581,-0.3619,-0.364,-0.3669,-0.3689,-0.3678,-0.3742,-0.3731,-0.3754,-0.3753,-0.3768,-0.3767,-0.3821,-0.3779,-0.3779,-0.3779,-0.3779,0,-0.3301,-0.3338,-0.3374,-0.3402,-0.3444,-0.3466,-0.3507,-0.3528,-0.3559,-0.3591,-0.3602,-0.3632,-0.3657,-0.369,-0.3706,-0.3749,-0.3758,-0.3769,-0.3773,-0.3769,-0.3768,-0.3783,-0.3781,-0.378,-0.378,-0.378,-0.3779,0,-0.333,-0.3355,-0.3406,-0.3448,-0.3459,-0.3488,-0.3524,-0.3551,-0.3571,-0.3611,-0.3622,-0.3653,-0.3692,-0.3715,-0.3764,-0.3775,-0.3823,-0.3825,-0.3812,-0.3814,-0.3836,-0.3834,-0.3903,-0.3913,-0.3863,-0.3863,-0.3864,0,-0.3358,-0.3387,-0.3432,-0.3455,-0.3477,-0.3513,-0.3537,-0.356,-0.3585,-0.3627,-0.3649,-0.3689,-0.3722,-0.3784,-0.381,-0.3848,-0.3852,-0.3873,-0.3857,-0.3852,-0.3853,-0.3851,-0.3854,-0.3876,-0.3877,-0.3877,-0.3877,0,-0.3404,-0.3415,-0.3451,-0.3491,-0.352,-0.3552,-0.3584,-0.3601,-0.3629,-0.3656,-0.3697,-0.3723,-0.3773,-0.3813,-0.3852,-0.3873,-0.388,-0.3882,-0.389,-0.3886,-0.3877,-0.3883,-0.382,-0.3881,-0.388,-0.388,-0.388,-0.388,-0.3434,-0.3461,-0.3497,-0.3536,-0.3563,-0.3592,-0.362,-0.3644,-0.3678,-0.3722,-0.3733,-0.3775,-0.3809,-0.3863,-0.3885,-0.3918,-0.3915,-0.3925,-0.3928,-0.3931,-0.3932,-0.3871,-0.3925,-0.3925,-0.3925,-0.3925,-0.3925,0,-0.3482,-0.3506,-0.3542,-0.3586,-0.3617,-0.3621,-0.3656,-0.3682,-0.3719,-0.3751,-0.3783,-0.383,-0.3868,-0.3897,-0.3936,-0.3957,-0.3961,-0.3967,-0.3966,-0.3971,-0.3932,-0.3922,-0.3963,-0.3963,-0.3963,-0.3963,-0.3963,-0.3963,-0.351,-0.3556,-0.3572,-0.3631,-0.3654,-0.3697,-0.3717,-0.3744,-0.3769,-0.3821,-0.3853,-0.3872,-0.3902,-0.3944,-0.3979,-0.3986,-0.4,-0.4005,-0.4013,-0.3977,-0.3973,-0.3969,-0.396,-0.4008,-0.4008,-0.4049,-0.405,-0.405]},{"header":{"parameterUnit":"m.s-1","parameterCategory":1,"la1":30.2991,"la2":30.254,"lo1":-89.0895,"lo2":-89.0444,"dy":0.0017,"dx":0.0017,"nx":28,"ny":28,"refTime":"2024-03-16T09:00:00:Z","depth":0,"parameterNumber":3,"parameterNumberName":"V-component_of_WINDS"},"data":[0,0,0,0,0,0,0,0,0,0,0,0,0,0,0,0,0,0,0,0,0,0,0,0,0,0,0,0,0,0,0,0,0,0,0,0,0,0,0,0,0,0,0,0,0,0,0,0,0,0,0,0,0,0,0,0,0,0,-7.6127,-7.6128,0,-7.6213,-7.6214,-7.6215,-7.6121,-7.6117,-7.6114,-7.611,-7.619,-7.6196,-7.6201,0,0,0,0,0,0,0,0,0,0,0,0,0,-7.5874,-7.5879,-7.6127,-7.6128,-7.6129,-7.6213,-7.6214,-7.6215,-7.6122,-7.6117,-7.6113,-7.6109,-7.6188,-7.6195,-7.6201,0,0,0,0,0,0,0,0,0,0,0,0,0,-7.5974,-7.5881,-7.6126,-7.6093,-7.609,-7.6213,-7.6214,-7.6215,-7.6122,-7.6117,-7.6112,-7.6107,-7.6186,-7.6194,-7.6202,-7.6359,0,0,-7.6227,-7.6231,0,0,0,0,0,0,0,0,-7.5968,-7.5983,-7.6096,-7.6095,-7.6093,-7.6151,-7.6154,-7.6263,-7.6124,-7.611,-7.611,-7.6104,-7.6181,-7.6189,-7.6217,-7.6363,-7.6367,-7.6228,-7.6233,-7.6236,-7.6239,0,0,0,0,0,0,0,-7.5962,-7.5979,-7.616,-7.6098,-7.6096,-7.607,-7.6079,-7.6174,-7.6174,-7.6111,-7.6104,-7.6116,-7.6179,-7.6209,-7.6218,-7.6368,-7.6228,-7.6235,-7.624,-7.6243,-7.6648,-7.6654,0,0,0,0,0,0,-7.596,-7.5974,-7.6158,-7.6163,-7.6017,-7.6079,-7.6089,-7.6137,-7.6173,-7.6173,-7.6121,-7.6112,-7.6198,-7.6208,-7.622,-7.6407,-7.6236,-7.6244,-7.6249,-7.6642,-7.6649,-7.6656,0,0,0,0,0,0,-7.5954,-7.5977,-7.6154,-7.6067,-7.6088,-7.609,-7.6145,-7.6142,-7.6172,-7.618,-7.6179,-7.6152,-7.6194,-7.6209,-7.6326,-7.6409,-7.6248,-7.6255,-7.6635,-7.6644,-7.6652,-7.6782,0,0,0,0,0,0,-7.5948,-7.5976,-7.6037,-7.6069,-7.6093,-7.6261,-7.615,-7.6148,-7.6188,-7.6176,-7.621,-7.621,-7.6191,-7.6315,-7.6335,-7.6417,-7.6261,-7.6628,-7.6639,-7.665,-7.677,-7.6794,-7.6815,0,0,0,0,0,-7.5939,-7.6068,-7.6041,-7.6063,-7.617,-7.6266,-7.6279,-7.6258,-7.6195,-7.6255,-7.6261,-7.6209,-7.6397,-7.6328,-7.6349,-7.6435,-7.6623,-7.6636,-7.6649,-7.6761,-7.679,-7.6814,0,0,0,0,0,0,-7.6041,-7.6071,-7.6041,-7.6185,-7.6225,-7.625,-7.6326,-7.6289,-7.6344,-7.6331,-7.6299,-7.6307,-7.6432,-7.6445,-7.6368,-7.6589,-7.6499,-7.6517,-7.6577,-7.6604,-7.6626,-7.662,-7.6268,0,0,0,0,0,-7.6082,-7.616,-7.6181,-7.6305,-7.6327,-7.6324,-7.6365,-7.6345,-7.6383,-7.6398,-7.6412,-7.6449,-7.6516,-7.6561,-7.6623,-7.6772,-7.6778,-7.6842,-7.6864,-7.6882,-7.6898,-7.6978,-7.7007,-7.6699,-7.6699,-7.6699,0,0,-7.6163,-7.619,-7.624,-7.6327,-7.6355,-7.6435,-7.6338,-7.6426,-7.6485,-7.641,-7.6523,-7.6535,-7.6574,-7.6708,-7.6768,-7.6723,-7.6984,-7.6899,-7.6913,-7.6919,-7.6995,-7.7024,-7.705,-7.6708,-7.6706,-7.6705,0,0,-7.6354,-7.6382,-7.649,-7.6521,-7.6566,-7.6564,-7.659,-7.6623,-7.6629,-7.6742,-7.6689,-7.6756,-7.6873,-7.6903,-7.6934,-7.7139,-7.7093,-7.716,-7.7274,-7.7353,-7.7377,-7.7399,-7.7472,-7.7498,-7.7175,-7.7176,-7.7176,0,-7.6449,-7.6571,-7.6549,-7.6643,-7.6682,-7.6622,-7.673,-7.676,-7.6822,-7.685,-7.6799,-7.6946,-7.6967,-7.7108,-7.7159,-7.7186,-7.7213,-7.7155,-7.7376,-7.7397,-7.7417,-7.7486,-7.7514,-7.7184,-7.7183,-7.7182,-7.7181,0,-7.6686,-7.6771,-7.6852,-7.6918,-7.6966,-7.7066,-7.7057,-7.7108,-7.7085,-7.7087,-7.7203,-7.7228,-7.7295,-7.7327,-7.7303,-7.7465,-7.7436,-7.7382,-7.729,-7.7455,-7.7519,-7.7545,-7.7195,-7.7192,-7.719,-7.7188,0,0,-7.6941,-7.6996,-7.7026,-7.7056,-7.7103,-7.7167,-7.7264,-7.7333,-7.7377,-7.7422,-7.7502,-7.7603,-7.7554,-7.7589,-7.7568,-7.7638,-7.7799,-7.7574,-7.7575,-7.7615,-7.7979,-7.8019,-7.805,-7.777,-7.7774,-7.7778,-7.7975,0,-7.7132,-7.7305,-7.7289,-7.7451,-7.7529,-7.7475,-7.7559,-7.7596,-7.7601,-7.7666,-7.767,-7.7743,-7.7672,-7.7693,-7.776,-7.7766,-7.7871,-7.7751,-7.7841,-7.7845,-7.7833,-7.8084,-7.8127,-7.8311,-7.8,-7.8005,-7.8008,0,-7.7379,-7.7437,-7.7609,-7.7646,-7.7678,-7.7754,-7.7817,-7.788,-7.792,-7.7919,-7.796,-7.7928,-7.8024,-7.7932,-7.8062,-7.7981,-7.8017,-7.8026,-7.8032,-7.8039,-7.7936,-7.8097,-7.8369,-7.8397,-7.8047,-7.8044,-7.8041,0,-7.7548,-7.7669,-7.7788,-7.7815,-7.7861,-7.7916,-7.7937,-7.7972,-7.8015,-7.8069,-7.8096,-7.8159,-7.8194,-7.8242,-7.8228,-7.8162,-7.8362,-7.8268,-7.8362,-7.8362,-7.8405,-7.8402,-7.8687,-7.843,-7.8429,-7.8429,-7.8428,0,-7.7763,-7.787,-7.7865,-7.7937,-7.8055,-7.8036,-7.8152,-7.8165,-7.8198,-7.8271,-7.8227,-7.8295,-7.8272,-7.8339,-7.8328,-7.8438,-7.8453,-7.8454,-7.8449,-7.8458,-7.8458,-7.848,-7.8467,-7.8436,-7.8435,-7.8433,-7.8432,0,-7.7971,-7.7972,-7.8098,-7.8133,-7.8144,-7.823,-7.8258,-7.8325,-7.8328,-7.8421,-7.8441,-7.8445,-7.8522,-7.8513,-7.8597,-7.8589,-7.8726,-7.8706,-7.8714,-7.8709,-7.8804,-7.8795,-7.9112,-7.9152,-7.8869,-7.8872,-7.8874,0,-7.8108,-7.819,-7.8235,-7.8283,-7.8309,-7.8386,-7.8431,-7.8415,-7.8462,-7.8516,-7.8577,-7.8651,-7.8709,-7.8833,-7.8841,-7.8906,-7.8887,-7.8994,-7.8896,-7.8903,-7.8888,-7.8884,-7.8892,-7.9013,-7.9016,-7.9018,-7.9021,0,-7.8352,-7.8349,-7.8417,-7.8487,-7.8543,-7.8596,-7.8643,-7.8684,-7.8672,-7.8728,-7.8808,-7.8854,-7.8942,-7.9015,-7.9077,-7.9095,-7.9056,-7.9052,-7.9077,-7.9086,-7.9087,-7.9087,-7.8766,-7.9044,-7.9042,-7.904,-7.9039,-7.9038,-7.8528,-7.8599,-7.8643,-7.8721,-7.8756,-7.8802,-7.8869,-7.8881,-7.8949,-7.9022,-7.9008,-7.9098,-7.9136,-7.9216,-7.9241,-7.931,-7.927,-7.9306,-7.9316,-7.9325,-7.9336,-7.9077,-7.932,-7.932,-7.9319,-7.9319,-7.9318,0,-7.8769,-7.8796,-7.8868,-7.8939,-7.9,-7.8962,-7.9013,-7.9066,-7.9147,-7.9188,-7.9247,-7.9339,-7.9411,-7.9426,-7.9494,-7.9546,-7.9529,-7.9564,-7.9559,-7.9564,-7.9367,-7.9339,-7.9576,-7.9576,-7.9576,-7.9576,-7.9576,-7.9576,-7.8901,-7.902,-7.9023,-7.9157,-7.9182,-7.9273,-7.9306,-7.9348,-7.9381,-7.9487,-7.9548,-7.9559,-7.9589,-7.9659,-7.9722,-7.9725,-7.9751,-7.9793,-7.9788,-7.9604,-7.9578,-7.9553,-7.9526,-7.9799,-7.98,-7.9979,-7.9981,-7.9982]}]]